Theta_e
365 353 352 359 353 351 349 352 371 366 365 366 366 365 368 361 360 367 359 361 363 348
363 360 352 360 365 356 361 354 357 364 364 364 364 367 370 359 366 365 364 364 363 356
363 365 362 364 368 363 365 367 361 362 361 363 366 366 372 365 366 368 361 357 368 365
362 362 363 366 367 369 368 370 368 367 364 363 363 366 372 370 366 364 367 366 363 367
364 362 360 361 366 370 369 368 370 368 367 363 362 367 369 363 362 363 362 364 367 361
361 362 360 365 364 368 369 370 364 368 369 366 363 367 368 369 366 364 364 364 366 365
361 362 362 365 367 367 369 370 369 370 370 368 365 365 364 366 367 367 364 366 367 366
362 364 365 365 368 368 369 369 371 371 370 370 364 358 364 366 366 368 365 366 367 367
364 365 365 365 367 369 369 370 371 369 370 368 359 343 339 356 362 366 366 366 368 369
365 365 365 366 367 368 368 370 370 370 369 369 370 336 334 339 360 363 365 367 368 364
366 365 366 367 367 369 369 369 370 370 371 371 369 336 329 335 360 360 364 367 368 369
366 367 367 367 368 369 370 369 369 370 371 371 371 333 329 335 358 358 363 365 366 368
368 369 368 369 370 371 370 369 366 368 372 360 373 335 326 335 357 358 356 365 367 340
370 370 372 373 373 372 371 366 370 368 371 372 367 368 324 322 361 355 355 354 353 357
Wind_Speed
15 12 12 10 9 9 8 7 12 11 10 9 10 8 8 7 8 8 6 6 6 6
16 16 14 13 12 9 9 7 9 11 11 10 10 9 7 8 8 4 6 8 7 6
18 17 14 13 13 13 9 9 6 10 10 11 10 10 9 8 8 7 7 8 9 6
19 19 17 14 14 12 11 9 10 9 10 11 11 10 10 10 7 10 8 8 6 8
19 19 19 18 15 14 13 12 11 11 11 11 12 11 11 12 10 10 11 11 9 9
21 20 19 19 17 16 15 14 15 13 12 12 12 12 12 12 12 11 12 11 10 10
22 21 20 18 18 17 16 15 15 14 14 14 13 13 14 13 13 12 12 11 11 11
21 20 19 19 19 18 17 16 16 15 14 14 14 13 14 13 13 13 13 12 12 13
19 20 20 20 19 18 17 17 16 16 16 15 14 16 16 15 13 13 13 12 12 12
19 20 20 19 19 19 19 17 17 17 16 16 16 12 17 18 14 12 13 13 12 12
19 20 19 19 20 19 17 18 16 16 16 15 15 14 14 16 15 14 13 12 13 13
20 20 19 20 20 17 16 16 16 16 17 17 16 17 16 14 14 15 15 14 15 13
19 19 20 20 18 17 16 17 15 16 16 17 16 14 17 17 13 14 13 14 15 15
18 18 17 16 15 16 16 15 15 15 14 16 16 15 19 20 15 13 13 13 12 13
Wind_Direction
201 208 222 207 209 224 223 206 140 178 200 221 190 218 171 203 224 188 208 218 253 296
201 212 203 222 207 222 221 229 186 183 197 212 215 204 199 237 196 174 214 198 221 245
194 199 219 202 202 213 216 226 225 196 208 214 216 213 205 214 210 202 222 229 180 229
196 198 202 212 201 213 212 211 213 230 207 219 218 214 208 237 232 198 218 257 245 199
195 198 198 205 207 198 210 213 213 214 215 217 217 212 209 214 226 221 208 217 229 233
200 198 200 196 204 202 202 207 215 209 213 209 215 216 212 215 223 230 219 228 230 230
201 201 198 197 198 203 200 202 210 212 207 208 210 215 219 215 220 225 229 226 230 233
201 201 200 200 197 200 201 201 204 210 213 208 211 214 215 219 215 218 232 232 222 230
194 198 203 200 199 198 201 202 203 209 211 213 218 209 200 209 221 220 221 229 232 239
192 198 200 198 197 200 201 200 205 208 211 214 218 207 197 200 220 222 223 228 230 235
195 196 198 197 200 199 200 202 202 208 210 215 217 203 195 198 215 226 238 233 228 233
198 193 197 201 199 197 201 203 204 207 210 213 219 197 193 186 216 226 233 235 241 245
197 197 198 199 199 199 200 205 206 209 209 211 217 194 193 190 220 222 228 227 233 231
198 201 199 198 196 201 204 207 209 211 211 212 211 215 192 194 214 227 222 234 235 230